This is the latest recevied weather packets stored in our database for station/object KC5EZZ-2. If no packets are shown the sender has not sent any weather packets the latest 10 day(s).
| Time | Temp. | Humidity | Pressure | Rain* | Wind** | Luminosity | Snow |
|---|---|---|---|---|---|---|---|
| 1777760504 | 21.11° C | - | - | 0 mm | 2.68 m/s, 98° | - | - |
| 1777760204 | 21.11° C | - | - | 0 mm | 2.24 m/s, 75° | - | - |
| 1777759905 | 21.67° C | - | - | 0 mm | 0.45 m/s, 75° | - | - |
| 1777759602 | 22.22° C | - | - | 0 mm | 2.24 m/s, 49° | - | - |
| 1777759303 | 22.78° C | - | - | 0 mm | 1.34 m/s, 51° | - | - |
| 1777759003 | 23.89° C | - | - | 0 mm | 0.89 m/s, 211° | - | - |
| 1777758700 | 23.33° C | - | - | 0 mm | 0 m/s | - | - |
| 1777758401 | 22.78° C | - | - | 0 mm | 2.24 m/s, 163° | - | - |
| 1777758101 | 22.22° C | - | - | 0 mm | 3.58 m/s, 131° | - | - |
| 1777757799 | 22.22° C | - | - | 0 mm | 1.79 m/s, 65° | - | - |
| 1777757499 | 21.67° C | - | - | 0 mm | 1.34 m/s, 68° | - | - |
| 1777757200 | 21.67° C | - | - | 0 mm | 1.34 m/s, 4° | - | - |
| 1777756897 | 23.89° C | - | - | 0 mm | 3.13 m/s, 13° | - | - |
| 1777756598 | 22.78° C | - | - | 0 mm | 1.79 m/s, 316° | - | - |
| 1777756298 | 22.78° C | - | - | 0 mm | 0.45 m/s, 120° | - | - |
| 1777755996 | 22.22° C | - | - | 0 mm | 3.58 m/s, 77° | - | - |
| 1777755696 | 22.22° C | - | - | 0 mm | 3.58 m/s, 13° | - | - |
| 1777755397 | 22.22° C | - | - | 0 mm | 2.24 m/s, 17° | - | - |
| 1777755094 | 21.67° C | - | - | 0 mm | 0.89 m/s, 15° | - | - |
| 1777754795 | 21.11° C | - | - | 0 mm | 1.34 m/s, 62° | - | - |
| 1777754495 | 21.11° C | - | - | 0 mm | 2.24 m/s, 58° | - | - |
| 1777754193 | 21.67° C | - | - | 0 mm | 0.89 m/s, 66° | - | - |
| 1777753893 | 21.67° C | - | - | 0 mm | 1.79 m/s, 79° | - | - |
| 1777753594 | 22.78° C | - | - | 0 mm | 1.79 m/s, 89° | - | - |
| 1777753291 | 23.33° C | - | - | 0 mm | 0 m/s | - | - |
* Rain latest hour (hover to see other rain measurements)
** Current wind speed in m/s (hover to see current wind gust speed)